Location: Kopernik Observatory
(42.0014°N, 76.0372°W)
Time: 13:14:07
(UTC-05:00)

Daily predictions for brighter satellites

Satellite Brightness Start Highest point End
(mag) Time Altitude Azimuth Time Altitude Azimuth Time Altitude Azimuth
Cosmos 1151 Rocket 3.1 17:29:26 10° N 17:33:39 54° E 17:37:52 10° SSE
Cosmos 332 Rocket 4.3 17:30:02 10° SSW 17:34:49 64° WNW 17:39:40 10° NNE
Cosmos 1300 2.9 17:31:24 10° N 17:35:09 50° E 17:38:52 10° SSE
COSMOS 2428 3.9 17:30:54 10° SW 17:36:20 44° WNW 17:41:47 10° NNE
SL-16 R/B 3.1 17:31:49 10° SSE 17:36:33 28° ESE 17:41:17 10° NE
Cosmos 1125 Rocket 3.5 17:34:12 10° NNW 17:39:26 83° ENE 17:44:38 10° SSE
Lacrosse 4 Rocket 3.3 17:38:19 10° NNE 17:39:50 12° NE 17:41:22 10° ENE
Cosmos 44 3.5 17:35:12 10° SSW 17:40:30 87° ESE 17:45:33 10° NNE
COSMOS 2441 4.4 17:36:17 10° SSE 17:41:06 65° ENE 17:45:54 10° N
Cosmos 1515 Rocket 3.7 17:36:49 10° N 17:41:19 83° W 17:45:44 10° S
SL-14 R/B 3.4 17:40:03 10° S 17:43:54 57° E 17:47:50 10° NNE
Cosmos 1340 Rocket 3.4 17:41:41 10° SSE 17:45:15 34° E 17:48:48 10° NNE
Cosmos 1484 Rocket 2.9 17:42:58 10° SSE 17:46:48 53° ENE 17:50:43 10° N
ALOS 4.0 17:45:18 10° E 17:47:22 13° ENE 17:49:25 10° NE
Cosmos 2297 4.1 17:42:38 10° NNW 17:48:05 43° ENE 17:53:29 10° SE
Cosmos 1805 Rocket 4.4 17:44:29 10° SSE 17:48:20 29° E 17:52:13 10° NNE
SKYMED 2 4.0 17:45:10 10° NNE 17:49:19 43° E 17:53:26 10° S
Meteor 2-10 4.1 17:46:08 10° N 17:51:10 56° ENE 17:56:19 10° SSE
Cosmos 1844 Rocket 4.4 17:45:59 10° NW 17:51:11 38° WSW 17:56:20 10° S
Thor Agena Rocket 3.6 17:47:30 10° NNE 17:52:46 87° WNW 17:57:56 10° SSW
Cosmos 2084 4.5 17:49:37 10° WSW 17:53:14 37° NW 17:56:48 10° NNE
Cosmos 1500 Rocket 4.0 17:50:53 10° SSW 17:55:10 65° W 17:59:32 10° N
SPOT 3 Rocket 4.0 17:50:59 10° S 17:56:05 68° WSW 18:01:16 10° NNW
Cosmos 2058 2.9 17:54:10 10° S 17:58:12 63° E 18:02:16 10° NNE
Meteor 1-28 Rocket 3.8 17:56:41 10° NNE 18:00:09 35° E 18:03:35 10° SSE
Cosmos 1461 3.2 17:57:08 10° S 18:01:09 45° ESE 18:04:37 13° NE
NOSS 0 Rocket 4.3 17:55:43 10° SSW 18:01:55 70° WNW 18:08:09 10° NNE
Cosmos 371 Rocket 4.4 17:58:39 10° SW 18:03:16 46° WNW 18:07:54 10° N
Sich 1 4.0 17:59:52 10° SSE 18:03:38 28° E 18:07:25 10° NNE
SMAP 4.3 17:59:38 10° S 18:04:06 46° W 18:08:35 10° NNW
METEOR-M 4.4 18:07:10 10° SE 18:12:12 44° ENE 18:17:16 10° N
Cosmos 1633 Rocket 3.8 18:08:38 10° SSE 18:12:28 30° E 18:16:19 10° NNE
Aureole 1 Rocket 4.5 18:12:16 10° SSE 18:17:07 34° E 18:23:14 10° NE
Cosmos 1980 4.4 18:11:43 10° SW 18:17:16 54° WNW 18:22:51 10° NNE
Abrixas 3.0 18:15:08 10° W 18:18:00 49° NNW 18:19:25 25° NE
Cosmos 1356 Rocket 3.6 18:15:17 10° SSE 18:19:05 44° E 18:22:54 10° NNE
Meteor 1-11 4.4 18:16:32 10° SSW 18:22:13 78° W 18:28:01 10° N
ATLAS 5 CENTAUR R/B 4.2 18:20:25 10° N 18:22:35 12° NNE 18:23:48 11° NE
NOAA 12 4.1 18:19:28 10° SSE 18:24:37 61° ENE 18:29:49 10° N
Lacrosse 5 rocket 2.4 18:21:42 10° WNW 18:25:20 43° SW 18:29:08 10° SSE
H-2A ROCKET BODY 4.4 17:56:44 10° WSW 18:26:46 40° S 18:33:03 11° ESE
FREGAT/IRIS 3.1 18:24:34 10° SE 18:27:25 38° ENE 18:30:18 10° N
Aureole 2 Rocket 3.6 18:24:04 10° SW 18:27:43 48° WNW 18:31:42 10° N
BREEZE-M DEB (TANK) 1.8 18:30:04 10° WSW 18:32:25 85° NNW 18:33:02 46° NE
Cosmos 1626 2.0 18:30:43 10° S 18:34:26 74° E 18:38:10 10° NNE
Cosmos 2219 Rocket 4.1 18:31:32 10° WSW 18:36:17 27° NW 18:41:01 10° N
Cosmos 1707 Rocket 3.4 18:32:24 10° N 18:36:46 84° E 18:41:06 10° S
COSMO-SKYMED 1 3.3 18:33:06 10° N 18:37:22 55° WNW 18:41:36 10° SSW
FengYun 1-2 T 4.5 18:33:15 10° SE 18:38:28 44° ENE 18:43:40 10° N
Cosmos 773 Rocket 4.1 18:33:56 10° S 18:38:54 51° ESE 18:42:09 21° NE
Cosmos 2333 Rocket 3.8 18:33:57 10° WSW 18:38:58 32° NW 18:44:01 10° N
Cosmos 304 Rocket 4.1 18:34:47 10° SSW 18:39:34 67° WNW 18:44:22 10° NNE
BREEZE M DEB (TANK) 1.3 18:38:23 10° WNW 18:40:46 63° SSW 18:40:57 58° S
Cosmos 1603 4.3 18:36:07 10° SSE 18:41:07 35° ESE 18:42:36 30° ENE
USA 215 3.2 18:37:34 16° ESE 18:42:55 68° NE 18:49:26 10° NW
Cosmos 1666 Rocket 3.5 18:43:13 10° S 18:47:33 89° W 18:51:58 10° N
Cosmos 2278 Rocket 4.2 18:43:16 10° NW 18:48:08 30° WSW 18:53:00 10° SSW
CZ-4C R/B 4.3 18:45:42 10° NNW 18:49:38 16° NNE 18:50:36 15° NNE
Resurs 01 Rocket 1.8 18:49:20 33° ESE 18:50:50 45° ENE 18:55:06 10° N
Cosmos 1455 2.1 18:47:19 10° N 18:51:07 86° W 18:54:57 10° S
SJ-6B 2.9 18:49:41 10° SSE 18:53:45 84° WSW 18:57:56 10° NNW
Cosmos 1703 4.3 18:50:21 10° SSW 18:54:06 46° WNW 18:57:52 10° N
Lacrosse 5 3.8 18:55:35 10° NNW 18:58:31 15° N 18:59:05 15° NNE
Cosmos 1933 Rocket 4.5 18:54:56 10° SSE 18:57:42 33° SE 18:57:42 33° SE
Tiangong 1 3.8 19:02:39 10° S 19:02:54 11° S 19:02:54 11° S
TIMED 4.3 19:03:32 10° NNW 19:07:57 84° ENE 19:09:11 47° SSE
Cosmos 2237 Rocket 4.3 19:08:43 10° WSW 19:13:09 23° NW 19:17:37 10° N
Cosmos 2369 Rocket 3.3 19:11:46 10° N 19:15:08 29° NNE 19:15:08 29° NNE
Lacrosse 4 Rocket 1.6 19:15:03 10° NNW 19:18:28 61° NW 19:18:28 61° NW
SL-16 R/B 3.3 19:15:05 10° SW 19:20:26 42° WNW 19:24:59 14° N
Cosmos 1470 Rocket 4.0 19:16:10 10° S 19:19:23 49° S 19:19:23 49° S
Cosmos 2242 Rocket 4.1 19:18:39 10° NNW 19:23:01 59° W 19:27:23 10° S
ALOS 2.4 19:19:31 10° S 19:24:10 74° WSW 19:28:51 10° NNW
Spot 2 Rocket 3.5 19:21:10 10° SSE 19:26:13 81° WSW 19:31:17 10° NNW
USA 229 DEB 3.6 19:20:08 10° SW 19:27:00 85° WNW 19:29:43 41° NNE
USA 229 3.6 19:20:14 10° SW 19:27:06 86° NW 19:29:47 41° NNE
Cosmos 2026 Rocket 3.8 19:22:13 10° S 19:28:22 68° E 19:29:03 62° NE
Cosmos 292 Rocket 4.1 19:31:15 10° SSW 19:35:12 61° SW 19:35:12 61° SW
Iridium 4 Rocket 4.0 19:32:11 10° SSW 19:36:31 46° W 19:38:16 29° NNW
FENGYUN 3A 4.5 19:44:18 10° S 19:49:28 48° W 19:54:41 10° NNW
Cosmos 1680 Rocket 4.2 19:52:17 10° SSW 19:56:19 49° WSW 19:56:19 49° WSW
ATLAS 5 CENTAUR R/B 4.1 20:03:25 10° NNW 20:05:22 20° N 20:05:22 20° N
USA 215 4.4 20:24:57 33° SSW 20:26:09 36° SW 20:32:07 10° WNW
Resurs 01 Rocket 4.3 20:26:51 16° WSW 20:27:32 17° W 20:30:27 10° NW
CZ-4C R/B 4.4 20:33:19 10° NNW 20:35:48 23° NNW 20:35:48 23° NNW
